Вернуться в каталог

STARLINK-33779

АктивенСвязьVLEO
NORAD 63880·PAYLOAD·🇺🇸 United States

Запущен May 10, 2025 с Vandenberg Space Force Base

Loading…

Ближайшие Пролёты (ближайшие 24 часа)

TLE

СвежийSource: CelesTrak SupGP

Эпоха: Sep 14, 2026, 21:03 UTC

1 63880C 25094S   26257.87756944  .00000676  00000+0  23539-4 0  2578
2 63880  69.9987 116.0566 0003652 267.6508 204.9435 15.29552229    10

Отслеживайте STARLINK-33779 в реальном времени с AllMySat

Download on the App Store